STARLINK-37508, 69257

Orbit data source: Space-Track

STARLINK-37508, 69257 is a payload satellite owned by SpaceX/Seattle (US) in LEO that was launched on Fri, 29 May 2026 UTC via an FALCON 9 launch vehicle from the Air Force Eastern Test Range (AFETR). Payload-class satellites include a variety of spacecraft equipped with specific instruments for various scientific and technological missions. These include communications satellites like Starlink; space stations such as the ISS; scientific satellites like the Hubble; Earth observation satellites from companies like Planet Labs, Umbra, and HawkEye 360; GPS; miniature CubeSats for education and research; and military/defense satellites.

Loading next visibility...
Identifier
69257, 2026-117V
Orbit
LEO
Country
Flag of USUS
Related business
Manufacturer
SpaceX/Seattle
Mission
Operational spacecraft
Bus & Motor
STARLINK V2MO, Unknown motor
Mass
575 kg wet, ~530 kg dry
Launch date (UTC)
2026-05-29 (3 weeks ago)
Launch vehicle
FALCON 9
Launch site
Air Force Eastern Test Range (AFETR)
Object type
Payload
Rocket body
Debris
Shape & HBR
Unknown
Radar Cross Section
Large (>1 m²)

Expand to show TLE details & history
Last TLE update: 10 hours ago

TLE from 10 hours ago
0 STARLINK-37508
1 69257U 26117V   26168.65216433 -.00034518  00000-0 -17214-3 0  9990
2 69257  53.1574 240.8651 0001130 133.7096 226.4020 15.80859775  3055
Epoch: 2026-06-17T15:39Z
TLE epoch observation values (Epoch: 2026-06-17T15:39:06.998Z)
Latitude
-0.00004°
Longitude
100.17914°
Altitude
329.45 km
Speed
7.712 km/s
True Right ascension
16h 03m 27s
True Declination
0° 00' 00"
Sunlit
Object was in full shadow at epoch
Visualization orbit readout
Latitude
Unknown
Longitude
Unknown
Altitude
Unknown
Speed
Unknown
Apparent Right ascension
Unknown
Apparent Declination
Unknown
Sunlit
N/A
Visualization observer readout
Local Sidereal Time
12:35:43
Azimuth
Unknown
Elevation
Unknown
Doppler factor
Unknown
Orbital elements
Apogee altitude
329.028 km
Perigee altitude
327.513 km
Semi-major axis
6,706.407 km
Eccentricity
0.00011
Inclination
53.1574°
RAAN
240.8651°
Arg. of periapsis
133.7096°
True anomaly
226.39262°
Mean anomaly
226.402°
Eccentric anomaly
226.39731°
Mean motion
3.95192 °/min
Orbital period
91.09 mins
BSTAR
-0.00017214
Loading maneuver chart data...
Computing Atmospheric mass density...
Loading historical data...
Loading historical data...
Loading historical data...
Loading historical data...
Loading historical data...
Loading historical data...
Loading historical data...

Documentation

Showing up to 5 results
|